This demonstration page uses our WeatherBlox Daily Observations layout. Learn more.

Left ArrowRight Arrow

Hourly Observations for September 13, 2015

Temp ( °F °C ) Dew Point ( °F °C ) Humidity (%) Winds ( mph kmh ) Pressure ( in mb ) Visibility ( mi km ) Precip ( " mm )
12:52 am 00:52 Partly Cloudy 57 13.9 47 8.3 69 69 SSE 5 7 30.05 1018 10 16 0.00 0.00
1:52 am 01:52 Partly Cloudy 55 12.8 47 8.3 74 74 SSE 7 11 30.04 1017 10 16 0.00 0.00
2:52 am 02:52 Clear 54 12.2 47 8.3 77 77 SSE 7 11 30.04 1017 10 16 0.00 0.00
3:52 am 03:52 Partly Cloudy 54 12.2 47 8.3 77 77 S 7 11 30.03 1017 10 16 0.00 0.00
4:52 am 04:52 Mostly Cloudy 55 12.8 48 8.9 77 77 SSE 7 11 30.02 1017 10 16 0.00 0.00
5:52 am 05:52 Mostly Cloudy 54 12.2 48 8.9 80 80 SSE 10 17 30.01 1016 10 16 0.00 0.00
6:52 am 06:52 Partly Cloudy 53 11.7 48 8.9 83 83 SSE 8 13 30.01 1016 10 16 0.00 0.00
7:52 am 07:52 Mostly Sunny 55 12.8 49 9.4 80 80 SSE 8 13 30.01 1016 10 16 0.00 0.00
8:52 am 08:52 Mostly Sunny 59 15 50 10 72 72 SSE 13 20 30.00 1016 10 16 0.00 0.00
9:52 am 09:52 Mostly Sunny 63 17.2 51 10.6 65 65 SSE 15 24 29.98 1015 10 16 0.00 0.00
10:52 am 10:52 Sunny 67 19.4 52 11.1 59 59 SSE 17 28 29.96 1015 10 16 0.00 0.00
11:52 am 11:52 Mostly Sunny 71 21.7 53 11.7 53 53 SSE 18 30 29.93 1014 10 16 0.00 0.00
12:52 pm 12:52 Mostly Sunny 73 22.8 54 12.2 51 51 S 21 33 29.90 1013 10 16 0.00 0.00
1:52 pm 13:52 Mostly Sunny 75 23.9 55 12.8 50 50 S 17 28 29.88 1012 10 16 0.00 0.00
2:52 pm 14:52 Mostly Sunny 77 25 56 13.3 48 48 S 20 31 29.85 1011 10 16 0.00 0.00
3:52 pm 15:52 Mostly Sunny 78 25.6 56 13.3 47 47 SSE 20 31 29.82 1010 10 16 0.00 0.00
4:52 pm 16:52 Mostly Sunny 79 26.1 56 13.3 45 45 S 15 24 29.80 1009 10 16 0.00 0.00
5:52 pm 17:52 Sunny 78 25.6 57 13.9 48 48 S 18 30 29.79 1009 10 16 0.00 0.00
6:52 pm 18:52 Sunny 76 24.4 58 14.4 54 54 SSE 17 28 29.78 1009 10 16 0.00 0.00
7:52 pm 19:52 Clear 72 22.2 58 14.4 61 61 SSE 15 24 29.78 1009 10 16 0.00 0.00
8:52 pm 20:52 Clear 70 21.1 58 14.4 66 66 SSE 14 22 29.79 1009 10 16 0.00 0.00
9:52 pm 21:52 Clear 68 20 58 14.4 70 70 SSE 14 22 29.80 1009 10 16 0.00 0.00
10:52 pm 22:52 Mostly Clear 67 19.4 58 14.4 73 73 SSE 12 19 29.80 1009 10 16 0.00 0.00
11:52 pm 23:52 Mostly Clear 67 19.4 58 14.4 73 73 S 15 24 29.79 1009 10 16 0.00 0.00

Powered by AerisWeather